SL-3 DEB, 21126

Orbit data source: Space-Track

SL-3 DEB, 21126 is space debris in LEO originally from a launch on Fri, 28 Aug 1964 UTC launched from the Tyuratam Missile And Space Complex (TTMTR). Debris objects in space refer to the collection of defunct objects orbiting the Earth. Examples of debris include non-operational satellites, rocket bodies, and fragments generated from explosions, collisions, or faulty payload assembly.

Loading next visibility...
Identifier
21126, 1964-053C
Orbit
LEO
Country
Flag of CISCIS
Related business
Manufacturer
Unknown
Mission
Spacecraft
Bus & Motor
Unknown
Mass
Unknown
Launch date (UTC)
1964-08-28 (61 years ago)
Launch vehicle
Unknown
Launch site
Tyuratam Missile And Space Complex (TTMTR)
Object type
Payload
Rocket body
Debris
Shape & HBR
Unknown
Radar Cross Section
Small (<0.1 m²)

Expand to show TLE details & history
Last TLE update: 7 hours ago

TLE from 7 hours ago
0 SL-3 DEB
1 21126U 64053C   25243.22122372  .00000997  00000-0  18596-3 0  9994
2 21126  65.0773 291.8877 0063926 326.3987 104.4859 14.69046744223348
Epoch: 2025-08-31T05:18Z
TLE epoch observation values (Epoch: 2025-08-31T05:18:33.729Z)
Latitude
59.49304°
Longitude
-75.73363°
Altitude
684.754 km
Speed
7.514 km/s
True Right ascension
22h 54m 12s
True Declination
59° 20' 27"
Sunlit
Object was in daylight at epoch
Visualization orbit readout
Latitude
Unknown
Longitude
Unknown
Altitude
Unknown
Speed
Unknown
Apparent Right ascension
Unknown
Apparent Declination
Unknown
Sunlit
N/A
Visualization observer readout
Local Sidereal Time
04:23:17
Azimuth
Unknown
Elevation
Unknown
Doppler factor
Unknown
Orbital elements
Apogee altitude
707.665 km
Perigee altitude
617.647 km
Semi-major axis
7,040.793 km
Eccentricity
0.00639
Inclination
65.0773°
RAAN
291.8877°
Arg. of periapsis
326.3987°
True anomaly
105.19372°
Mean anomaly
104.4859°
Eccentric anomaly
104.83995°
Mean motion
3.67376 °/min
Orbital period
97.99 mins
BSTAR
0.00018596
Loading maneuver chart data...
Computing Atmospheric mass density...
Loading historical data...
Loading historical data...
Loading historical data...
Loading historical data...
Loading historical data...
Loading historical data...
Loading historical data...
Other satellites on launch #53 in the year 1964 (1964-08-28 UTC)

Documentation

Showing up to 5 results
|